AV357 Weather Reports


time (UTC)temp
C
wind
direction
speed
KPH
gust
KPH
rain 1hr
cm
rain 24hr
cm
rain mn
cm
humidity
%
barometer
mb
20260506185003 14 97 1.6 3.2 0.00 1.14 1.14 78 1017.6
20260506184713 14 82 1.6 3.2 0.00 1.14 1.14 78 1017.7
20260506184004 14 75 1.6 3.2 0.00 1.14 1.14 78 1017.3
20260506183503 14 97 1.6 3.2 0.00 1.14 1.14 76 1017.3
20260506183003 14 128 1.6 3.2 0.00 1.14 1.14 77 1017.2
20260506182503 15 133 1.6 3.2 0.00 1.14 1.14 78 1017.0
20260506182214 15 143 0.0 3.2 0.00 1.14 1.14 77 1016.8
20260506181503 15 138 0.0 1.6 0.00 1.14 1.14 75 1016.6
20260506181003 15 121 0.0 1.6 0.00 1.14 1.14 74 1016.5
20260506180503 15 135 0.0 1.6 0.00 1.14 1.14 76 1016.2
20260506180005 16 163 0.0 1.6 0.00 1.14 1.14 77 1016.1
20260506175503 16 131 0.0 3.2 0.00 1.14 1.14 77 1015.9
20260506175003 16 131 0.0 3.2 0.00 1.14 1.14 76 1015.7
20260506174503 16 0 0.0 0.0 0.00 1.14 1.14 76 1015.7
20260506174003 16 293 0.0 3.2 0.00 1.14 1.14 73 1015.5
20260506173503 16 295 0.0 3.2 0.00 1.14 1.14 73 1015.3
20260506173003 17 298 0.0 3.2 0.00 1.14 1.14 72 1015.5
20260506172503 17 291 1.6 3.2 0.00 1.14 1.14 71 1015.2
20260506172003 17 296 1.6 3.2 0.00 1.14 1.14 70 1015.5
20260506171712 17 306 0.0 1.6 0.00 1.14 1.14 70 1015.2
20260506171003 17 291 0.0 3.2 0.00 1.14 1.14 70 1015.2
20260506170503 17 290 1.6 4.8 0.00 1.14 1.14 69 1015.2
20260506170003 17 288 3.2 4.8 0.00 1.14 1.14 70 1015.5
20260506165503 17 288 3.2 4.8 0.00 1.14 1.14 70 1015.4
20260506165003 17 288 1.6 4.8 0.00 1.14 1.14 70 1015.0
20260506164503 19 272 1.6 4.8 0.00 1.14 1.14 65 1014.4
20260506164213 19 244 1.6 4.8 0.00 1.14 1.14 63 1014.4
20260506163712 19 289 1.6 6.4 0.00 1.14 1.14 61 1014.2
20260506163003 19 287 3.2 9.7 0.00 1.14 1.14 62 1014.5
20260506162503 18 287 1.6 9.7 0.00 1.14 1.14 63 1014.6
20260506162003 19 285 1.6 4.8 0.00 1.14 1.14 61 1014.3
20260506161503 19 293 1.6 3.2 0.00 1.14 1.14 63 1014.4
20260506161003 18 282 1.6 4.8 0.00 1.14 1.14 63 1014.4
20260506160503 18 280 1.6 4.8 0.00 1.14 1.14 63 1014.5
20260506160003 17 261 1.6 4.8 0.00 1.14 1.14 65 1014.8
20260506155503 17 181 1.6 4.8 0.00 1.14 1.14 65 1015.0
20260506155213 17 177 1.6 4.8 0.00 1.14 1.14 66 1014.8
20260506154504 18 231 1.6 4.8 0.00 1.14 1.14 65 1014.8
20260506154003 18 116 0.0 3.2 0.00 1.14 1.14 65 1014.7
20260506153503 18 127 0.0 3.2 0.00 1.14 1.14 67 1014.9
20260506153003 18 177 1.6 6.4 0.00 1.14 1.14 67 1014.9
20260506152503 18 251 1.6 6.4 0.00 1.14 1.14 67 1014.9
20260506152213 18 306 1.6 4.8 0.00 1.14 1.14 65 1015.0
20260506151714 18 326 1.6 4.8 0.00 1.14 1.14 64 1015.0
20260506151003 18 236 1.6 4.8 0.00 1.14 1.14 63 1014.8
20260506150503 17 92 1.6 4.8 0.00 1.14 1.14 63 1014.9
20260506150004 18 73 1.6 9.7 0.00 1.14 1.14 63 1014.8
20260506145503 17 74 3.2 11.3 0.00 1.14 1.14 64 1014.9
20260506145003 18 77 3.2 14.5 0.00 1.14 1.14 65 1014.9
20260506144503 18 79 1.6 14.5 0.00 1.14 1.14 64 1014.8
20260506144003 18 103 1.6 6.4 0.00 1.14 1.14 63 1014.9
20260506143503 18 146 1.6 6.4 0.00 1.14 1.14 64 1014.8
20260506143003 19 273 3.2 12.9 0.00 1.14 1.14 64 1014.5
20260506142503 19 221 4.8 12.9 0.00 1.14 1.14 63 1014.4
20260506142003 19 178 3.2 9.7 0.00 1.14 1.14 63 1014.7
20260506141713 20 250 3.2 14.5 0.00 1.14 1.14 63 1014.3
20260506141003 19 255 4.8 14.5 0.00 1.14 1.14 63 1014.6
20260506140503 19 156 3.2 6.4 0.00 1.14 1.14 59 1014.7
20260506140003 20 209 3.2 9.7 0.00 1.14 1.14 61 1014.5
20260506135503 20 235 3.2 9.7 0.00 1.14 1.14 63 1014.4
20260506135003 19 264 3.2 9.7 0.00 1.14 1.14 63 1014.8
20260506134503 19 284 3.2 9.7 0.00 1.14 1.14 61 1014.9
20260506134003 20 215 1.6 6.4 0.00 1.14 1.14 62 1014.8
20260506133503 19 129 3.2 12.9 0.00 1.14 1.14 64 1015.0
20260506133214 18 157 4.8 12.9 0.00 1.14 1.14 65 1015.0
20260506132503 18 187 4.8 11.3 0.00 1.14 1.14 66 1014.9
20260506132003 18 148 4.8 11.3 0.00 1.14 1.14 65 1015.1
20260506131503 18 165 4.8 11.3 0.00 1.14 1.14 66 1015.1
20260506131003 18 185 3.2 11.3 0.00 1.14 1.14 66 1015.2
20260506130503 18 192 3.2 11.3 0.00 1.14 1.14 66 1015.4
20260506130003 17 221 4.8 12.9 0.00 1.14 1.14 67 1015.5
20260506125503 17 227 4.8 12.9 0.00 1.14 1.14 69 1015.3
20260506125003 17 167 4.8 11.3 0.00 1.14 1.14 70 1015.4
20260506124503 17 152 3.2 9.7 0.00 1.14 1.14 70 1015.3
20260506124214 17 171 1.6 6.4 0.00 1.14 1.14 68 1015.3
20260506123503 17 239 1.6 6.4 0.00 1.14 1.14 70 1015.3
20260506123214 17 246 1.6 6.4 0.00 1.14 1.14 70 1015.5
20260506122503 17 275 1.6 6.4 0.00 1.14 1.14 68 1015.3
20260506122003 17 57 3.2 9.7 0.00 1.14 1.14 68 1015.1
20260506121503 18 64 3.2 9.7 0.00 1.14 1.14 68 1014.9
20260506121214 18 69 3.2 11.3 0.00 1.14 1.14 68 1015.1
20260506120713 17 76 4.8 11.3 0.00 1.14 1.14 69 1015.3
20260506120003 18 75 3.2 11.3 0.00 1.14 1.14 68 1014.9
20260506115503 18 97 1.6 9.7 0.00 1.14 1.14 67 1014.9
20260506115003 18 21 1.6 6.4 0.00 1.14 1.14 66 1015.0
20260506114503 18 55 1.6 4.8 0.00 1.14 1.14 66 1015.1
20260506114213 17 24 1.6 4.8 0.00 1.14 1.14 67 1015.1
20260506113503 18 351 1.6 9.7 0.00 1.14 1.14 65 1015.2
20260506113003 17 97 1.6 9.7 0.00 1.14 1.14 67 1015.3
20260506112503 17 101 3.2 9.7 0.00 1.14 1.14 70 1015.6
20260506112213 17 75 1.6 9.7 0.00 1.14 1.14 67 1015.4
20260506111712 17 68 3.2 9.7 0.00 1.14 1.14 68 1015.2
20260506111003 17 76 1.6 9.7 0.00 1.14 1.14 70 1015.6
20260506110503 17 95 1.6 9.7 0.00 1.14 1.14 71 1015.5
20260506110003 16 117 1.6 6.4 0.00 1.14 1.14 73 1015.8
20260506105503 16 93 3.2 12.9 0.00 1.14 1.14 73 1015.9
20260506105003 16 68 1.6 12.9 0.00 1.14 1.14 72 1015.9
20260506104503 17 102 1.6 6.4 0.00 1.14 1.14 71 1015.9
20260506104003 16 131 3.2 12.9 0.00 1.14 1.14 70 1015.9
20260506103503 16 153 3.2 12.9 0.00 1.14 1.14 71 1016.4
20260506103003 16 156 3.2 6.4 0.00 1.14 1.14 70 1016.4
20260506102503 16 183 3.2 9.7 0.00 1.14 1.14 69 1016.1
20260506102003 16 176 3.2 9.7 0.00 1.14 1.14 69 1016.3
20260506101503 15 140 1.6 9.7 0.00 1.14 1.14 72 1016.3
20260506101003 16 130 1.6 3.2 0.00 1.14 1.14 71 1016.2
20260506100714 16 125 1.6 3.2 0.00 1.14 1.14 69 1016.1
20260506100004 15 141 1.6 6.4 0.00 1.14 1.14 70 1016.3
20260506095503 16 143 3.2 6.4 0.00 1.14 1.14 71 1016.3
20260506095003 15 148 3.2 6.4 0.00 1.14 1.14 68 1016.4
20260506094503 15 134 3.2 9.7 0.00 1.14 1.14 70 1016.8
20260506094003 16 124 3.2 9.7 0.00 1.14 1.14 68 1016.4
20260506093503 16 126 1.6 6.4 0.00 1.14 1.14 70 1016.5
20260506093004 15 137 1.6 6.4 0.00 1.14 1.14 75 1016.6
20260506092503 15 144 1.6 6.4 0.00 1.14 1.14 75 1016.7
20260506092008 15 154 1.6 4.8 0.00 1.14 1.14 75 1016.6
20260506091713 15 110 1.6 4.8 0.00 1.14 1.14 72 1016.8
20260506091003 15 70 1.6 4.8 0.00 1.14 1.14 73 1016.9
20260506090503 15 74 1.6 6.4 0.00 1.14 1.14 72 1016.8
20260506090003 15 68 1.6 6.4 0.00 1.14 1.14 75 1016.7
20260506085503 15 68 1.6 4.8 0.00 1.14 1.14 78 1017.1
20260506085003 14 77 3.2 6.4 0.00 1.14 1.14 76 1017.0
20260506084503 15 69 3.2 6.4 0.00 1.14 1.14 77 1016.8
20260506084212 15 64 1.6 6.4 0.00 1.14 1.14 74 1016.7
20260506083503 17 342 0.0 1.6 0.00 1.14 1.14 65 1016.3
20260506083212 16 24 0.0 3.2 0.00 1.14 1.14 66 1016.4
20260506082713 16 43 1.6 3.2 0.00 1.14 1.14 69 1016.4
20260506082003 16 47 1.6 6.4 0.00 1.14 1.14 67 1016.8
20260506081503 15 355 1.6 3.2 0.00 1.14 1.14 72 1016.7
20260506081003 15 322 1.6 3.2 0.00 1.14 1.14 71 1016.7
20260506080503 15 358 1.6 4.8 0.00 1.14 1.14 72 1017.0
20260506073503 14 18 0.0 3.2 0.00 1.14 1.14 81 1017.5
20260506073003 13 314 1.6 4.8 0.00 1.14 1.14 83 1017.4
20260506072503 13 305 0.0 4.8 0.00 1.14 1.14 84 1017.7
20260506072214 13 308 0.0 3.2 0.00 1.14 1.14 83 1017.6
20260506071503 12 47 0.0 1.6 0.00 1.14 1.14 89 1018.0
20260506071003 12 54 0.0 1.6 0.00 1.14 1.14 91 1018.0
20260506070503 11 61 0.0 1.6 0.00 1.14 1.14 93 1018.1
20260506070214 11 348 0.0 3.2 0.03 1.14 1.14 93 1018.4
20260506062503 10 0 0.0 0.0 0.08 1.14 1.14 97 1018.9
20260506062003 10 0 0.0 0.0 0.08 1.14 1.14 98 1019.0
20260506061503 10 0 0.0 0.0 0.08 1.14 1.14 98 1018.9
20260506061003 10 78 0.0 1.6 0.10 1.14 1.14 98 1019.0
20260506060503 10 78 0.0 1.6 0.10 1.14 1.14 98 1019.1
20260506051003 10 70 0.0 1.6 0.71 1.04 1.04 98 1018.9
20260506050503 10 73 1.6 4.8 0.74 1.04 1.04 98 1019.0
20260506045003 10 106 0.0 3.2 0.79 1.02 1.02 98 1019.1
20260506044503 10 112 0.0 3.2 0.79 0.99 0.99 98 1019.1
20260506044003 10 88 0.0 1.6 0.74 0.91 0.91 98 1019.1
20260506043503 10 77 0.0 1.6 0.69 0.81 0.84 98 1019.2
20260506043003 10 107 0.0 3.2 0.58 0.66 0.66 98 1019.1
20260506042503 10 108 0.0 3.2 0.46 0.53 0.53 98 1019.1
20260506042003 10 85 0.0 3.2 0.41 0.46 0.46 98 1019.4
20260506041714 10 87 1.6 3.2 0.36 0.41 0.41 98 1019.4
20260506041003 10 75 1.6 3.2 0.28 0.36 0.33 98 1019.1
20260506040503 10 70 1.6 4.8 0.25 0.36 0.30 98 1019.4
20260506040003 10 71 0.0 4.8 0.23 0.36 0.28 98 1019.2
20260506035503 10 69 0.0 4.8 0.20 0.36 0.25 98 1019.1
20260506035003 10 91 1.6 4.8 0.18 0.36 0.23 98 1019.1
20260506034713 10 129 0.0 4.8 0.18 0.38 0.23 98 1019.1
20260506034003 10 125 1.6 4.8 0.13 0.38 0.18 97 1019.4
20260506033503 10 125 0.0 4.8 0.08 0.33 0.13 97 1019.4
20260506033004 10 127 0.0 3.2 0.03 0.30 0.08 97 1019.4
20260506032503 10 132 0.0 1.6 0.03 0.30 0.08 97 1019.4
20260506032003 10 132 0.0 1.6 0.00 0.28 0.05 97 1019.5
20260506031503 10 132 0.0 1.6 0.00 0.30 0.05 97 1019.6
20260506031003 10 113 0.0 1.6 0.00 0.33 0.05 97 1019.6
20260506030713 10 79 0.0 3.2 0.00 0.36 0.05 97 1019.8
20260506030003 10 83 0.0 3.2 0.00 0.38 0.05 97 1019.8
20260506025503 10 140 0.0 1.6 0.00 0.38 0.05 98 1020.0
20260506025004 10 0 0.0 0.0 0.00 0.41 0.05 98 1020.1
20260506024713 10 0 0.0 0.0 0.00 0.43 0.05 98 1020.0
20260506024003 10 0 0.0 0.0 0.00 0.48 0.05 98 1020.2
20260506023503 10 0 0.0 0.0 0.00 0.51 0.05 98 1020.1
20260506023003 10 0 0.0 0.0 0.00 0.53 0.05 97 1020.3
20260506022503 10 127 0.0 1.6 0.00 0.56 0.05 97 1020.1
20260506022003 10 126 0.0 3.2 0.00 0.58 0.05 97 1020.3
20260506021713 10 126 0.0 3.2 0.00 0.61 0.05 97 1020.2
20260506021003 10 126 0.0 1.6 0.00 0.66 0.05 97 1020.3
20260506020503 10 0 0.0 0.0 0.00 0.66 0.05 97 1020.1
20260506020004 10 317 0.0 1.6 0.00 0.69 0.05 97 1020.3
20260506015713 10 317 0.0 1.6 0.00 0.69 0.05 97 1020.0
20260506015003 10 0 0.0 0.0 0.00 0.71 0.05 97 1020.3
20260506014503 10 0 0.0 0.0 0.00 0.71 0.05 97 1020.4
20260506014003 10 0 0.0 0.0 0.00 0.71 0.05 97 1020.3
20260506013503 10 311 0.0 1.6 0.00 0.71 0.05 97 1020.4
20260506013003 10 301 1.6 3.2 0.00 0.71 0.05 97 1020.4
20260506012503 10 297 1.6 3.2 0.00 0.71 0.05 97 1020.4
20260506012003 10 289 0.0 1.6 0.03 0.71 0.05 97 1020.6
20260506011503 10 0 0.0 0.0 0.03 0.71 0.05 97 1020.8
20260506011214 10 0 0.0 0.0 0.03 0.71 0.05 97 1020.4
20260506010503 10 72 0.0 1.6 0.05 0.71 0.05 97 1020.8
20260506010003 10 73 0.0 3.2 0.05 0.71 0.05 97 1020.7
20260506005503 10 72 1.6 3.2 0.05 0.71 0.05 97 1020.9
20260506005003 10 73 1.6 3.2 0.05 0.71 0.05 97 1021.1
20260506004503 10 74 1.6 3.2 0.05 0.71 0.05 97 1021.2
20260506004003 10 75 0.0 3.2 0.05 0.71 0.05 97 1021.4
20260506003503 10 0 0.0 0.0 0.05 0.71 0.05 97 1021.3
20260506003003 10 157 0.0 1.6 0.05 0.71 0.05 97 1021.8
20260506002503 10 157 0.0 1.6 0.05 0.71 0.05 96 1021.9
20260506002003 10 0 0.0 0.0 0.03 0.69 0.03 96 1021.9
20260506001712 10 0 0.0 0.0 0.03 0.69 0.03 96 1021.7
20260506001003 10 113 0.0 1.6 0.03 0.71 0.03 96 1022.0
20260506000712 10 113 0.0 1.6 0.00 0.69 0.00 96 1022.2
20260506000213 11 315 0.0 1.6 0.00 0.69 0.00 96 1021.9
20260505235503 11 315 0.0 1.6 0.00 0.69 0.00 95 1022.1
20260505235213 11 0 0.0 0.0 0.00 0.69 0.00 95 1022.2
20260505234714 11 60 0.0 1.6 0.00 0.69 0.00 95 1022.1
20260505234003 11 60 0.0 1.6 0.00 0.69 0.00 95 1022.0
20260505233503 11 0 0.0 0.0 0.00 0.69 0.00 96 1022.2
20260505233003 11 311 0.0 1.6 0.00 0.69 0.00 96 1022.0
20260505232503 10 308 0.0 1.6 0.00 0.69 0.00 96 1022.1
20260505232003 10 304 0.0 1.6 0.00 0.69 0.00 96 1022.2
20260505231503 11 303 0.0 3.2 0.00 0.69 0.00 96 1022.3
20260505231003 11 308 0.0 3.2 0.00 0.69 0.00 95 1022.3
20260505230714 11 328 0.0 1.6 0.00 0.69 0.00 95 1022.5
20260505230003 11 0 0.0 0.0 0.00 0.69 0.00 95 1022.4
20260505225503 10 71 0.0 1.6 0.00 0.69 0.00 95 1022.3
20260505225213 11 69 0.0 1.6 0.00 0.69 0.00 96 1022.5
20260505224503 10 90 0.0 1.6 0.00 0.69 0.00 96 1022.6
20260505224213 10 133 0.0 1.6 0.00 0.69 0.00 96 1022.5
20260505223503 10 132 0.0 1.6 0.00 0.69 0.00 96 1022.8
20260505223003 10 0 0.0 0.0 0.00 0.69 0.00 95 1022.8
20260505222503 10 282 0.0 1.6 0.00 0.69 0.00 95 1022.6
20260505222003 10 282 0.0 1.6 0.00 0.69 0.00 95 1022.5
20260505221503 11 0 0.0 0.0 0.00 0.69 0.00 95 1022.8
20260505221003 11 74 0.0 1.6 0.00 0.69 0.00 95 1022.8
20260505220503 11 74 0.0 1.6 0.00 0.69 0.00 95 1022.8
20260505220003 11 0 0.0 0.0 0.00 0.69 0.00 95 1022.6
20260505215503 11 0 0.0 0.0 0.00 0.69 0.69 95 1022.8
20260505215003 11 0 0.0 0.0 0.00 0.69 0.69 95 1022.6
20260505214503 11 0 0.0 0.0 0.00 0.69 0.69 95 1022.8
20260505214003 11 0 0.0 0.0 0.00 0.69 0.69 95 1022.7
20260505213503 11 0 0.0 0.0 0.00 0.69 0.69 95 1022.7
20260505213003 11 68 0.0 1.6 0.00 0.69 0.69 95 1022.9
20260505212503 11 68 0.0 1.6 0.00 0.69 0.69 95 1023.0
20260505212214 11 57 0.0 1.6 0.00 0.69 0.69 95 1023.3
20260505211503 11 299 0.0 1.6 0.00 0.69 0.69 95 1023.0
20260505211003 11 348 0.0 1.6 0.00 0.69 0.69 94 1023.2
20260505210503 11 70 0.0 1.6 0.00 0.69 0.69 95 1023.2
20260505210003 11 70 0.0 1.6 0.00 0.69 0.69 94 1023.3
20260505205504 11 71 0.0 1.6 0.00 0.69 0.69 94 1023.4
20260505205003 11 0 0.0 0.0 0.00 0.69 0.69 94 1023.2
20260505204503 11 0 0.0 0.0 0.00 0.69 0.69 93 1023.2
20260505204013 11 0 0.0 0.0 0.00 0.71 0.69 93 1023.2
20260505203503 11 0 0.0 0.0 0.00 0.71 0.69 93 1023.2
20260505203003 11 0 0.0 0.0 0.00 0.71 0.69 93 1023.0
20260505202503 11 0 0.0 0.0 0.00 0.71 0.69 93 1023.1
20260505202214 11 0 0.0 0.0 0.00 0.71 0.69 93 1023.2
20260505201503 11 77 0.0 1.6 0.00 0.71 0.69 93 1023.3
20260505201004 11 77 0.0 1.6 0.00 0.71 0.69 94 1023.3
20260505200505 11 73 0.0 1.6 0.00 0.71 0.69 94 1023.3
20260505200003 11 73 1.6 3.2 0.00 0.71 0.69 94 1023.2
20260505195712 11 73 1.6 3.2 0.00 0.71 0.69 94 1023.1
20260505195213 11 71 0.0 1.6 0.00 0.74 0.69 94 1022.9
20260505194503 11 79 0.0 3.2 0.00 0.74 0.69 93 1022.8
20260505194003 11 76 0.0 3.2 0.00 0.74 0.69 92 1023.0
20260505193504 11 64 0.0 1.6 0.00 0.76 0.69 93 1023.0
20260505193003 11 72 0.0 3.2 0.00 0.76 0.69 93 1022.9
20260505192504 11 75 0.0 3.2 0.00 0.76 0.69 93 1022.9
20260505192004 11 68 0.0 3.2 0.00 0.79 0.69 94 1022.7
20260505191503 11 68 0.0 3.2 0.00 0.79 0.69 93 1022.9
20260505191003 11 0 0.0 0.0 0.00 0.79 0.69 93 1022.8
20260505190712 11 0 0.0 0.0 0.00 0.79 0.69 93 1022.6
20260505190003 11 0 0.0 0.0 0.00 0.79 0.69 93 1022.4
20260505185714 12 0 0.0 0.0 0.00 0.81 0.69 93 1022.5